Location: Morlupo
(42.1333°N, 12.5000°E)
Time: 16:20:03
(UTC+00:00)

Cosmos 2227 - Pass Details

Date: 18 September 2020
Orbit: 836 x 859 km, 71.0° (Epoch: 25 October)

Event Time Altitude Azimuth Distance (km) Brightness Sun altitude
Rises 17:55:57 0° 206° (SSW) 3,419 7.6 -8.6°
Reaches altitude 10° 17:58:24 10° 207° (SSW) 2,485 6.9 -9.1°
Maximum altitude 18:04:07 79° 294° (WNW) 875 4.4 -10.1°
Drops below altitude 10° 18:09:52 10° 22° (NNE) 2,489 6.6 -11.1°
Sets 18:12:20 0° 24° (NNE) 3,425 7.3 -11.6°
